This is the latest recevied weather packets stored in our database for station/object AI5KP-13. If no packets are shown the sender has not sent any weather packets the latest 10 day(s).
| Time | Temp. | Humidity | Pressure | Rain* | Wind** | Luminosity | Snow |
|---|---|---|---|---|---|---|---|
| 1777760656 | 19.44° C | 39% | 1018.8 hPa | 0 mm | - | 278 W/m² | - |
| 1777760356 | 20° C | 41% | 1018.8 hPa | 0 mm | - | 292 W/m² | - |
| 1777760054 | 20° C | 38% | 1018.7 hPa | 0 mm | - | 306 W/m² | - |
| 1777759751 | 20° C | 39% | 1018.7 hPa | 0 mm | - | 320 W/m² | - |
| 1777759446 | 20° C | 38% | 1018.8 hPa | 0 mm | - | 333 W/m² | - |
| 1777759143 | 20° C | 41% | 1018.7 hPa | 0 mm | - | 345 W/m² | - |
| 1777758841 | 20.56° C | 40% | 1018.8 hPa | 0 mm | - | 359 W/m² | - |
| 1777758537 | 19.44° C | 36% | 1019 hPa | 0 mm | - | 376 W/m² | - |
| 1777758234 | 20.56° C | 36% | 1018.8 hPa | 0 mm | - | 388 W/m² | - |
| 1777757931 | 20° C | 37% | 1019 hPa | 0 mm | - | 402 W/m² | - |
| 1777757628 | 20° C | 37% | 1018.9 hPa | 0 mm | - | 415 W/m² | - |
| 1777757327 | 20° C | 38% | 1018.9 hPa | 0 mm | - | 428 W/m² | - |
| 1777757025 | 20° C | 41% | 1019 hPa | 0 mm | - | 442 W/m² | - |
| 1777756722 | 20° C | 40% | 1018.9 hPa | 0 mm | - | 457 W/m² | - |
| 1777756418 | 20.56° C | 36% | 1018.9 hPa | 0 mm | - | 469 W/m² | - |
| 1777756115 | 20.56° C | 38% | 1019 hPa | 0 mm | - | 481 W/m² | - |
| 1777755812 | 21.67° C | 38% | 1019 hPa | 0 mm | - | 494 W/m² | - |
| 1777755510 | 20.56° C | 38% | 1019.1 hPa | 0 mm | - | 508 W/m² | - |
| 1777755205 | 20° C | 37% | 1019 hPa | 0 mm | - | 516 W/m² | - |
| 1777754903 | 20.56° C | 38% | 1019.2 hPa | 0 mm | - | 531 W/m² | - |
| 1777754600 | 20.56° C | 40% | 1019.4 hPa | 0 mm | - | 541 W/m² | - |
| 1777754297 | 20° C | 37% | 1019.2 hPa | 0 mm | - | 552 W/m² | - |
| 1777753995 | 20° C | 38% | 1019.1 hPa | 0 mm | - | 559 W/m² | - |
| 1777753694 | 20.56° C | 37% | 1019.3 hPa | 0 mm | - | 574 W/m² | - |
| 1777753392 | 20.56° C | 38% | 1019.2 hPa | 0 mm | - | 582 W/m² | - |
* Rain latest hour (hover to see other rain measurements)
** Current wind speed in m/s (hover to see current wind gust speed)